• In Netherlands
  • List of Countries
  • For 7 days
  • Water Temperature
  • Satellite Maps
  • Weather Map
  • Weather Widgets
  • user-avatar
    Login

    Hourly Weather Idzhewan

    Today, 20 August, Sunday

    Time Temperature Precipitation Wind Pressure Humidity
    00:00 +21°C° 0 mm 1 mps 695 mmHg 59%
    01:00 +21°C° 0 mm 1 mps 695 mmHg 60%
    02:00 +20°C° 0 mm 1 mps 695 mmHg 62%
    03:00 +20°C° 0 mm 1 mps 695 mmHg 63%
    04:00 +20°C° 0 mm 1 mps 695 mmHg 63%
    05:00 +20°C° 0 mm 1 mps 695 mmHg 63%
    06:00 +20°C° 0 mm 1 mps 695 mmHg 63%
    07:00 +21°C° 0 mm 2 mps 695 mmHg 56%
    08:00 +24°C° 0 mm 2 mps 696 mmHg 48%
    09:00 +26°C° 0 mm 2 mps 696 mmHg 41%
    10:00 +28°C° 0 mm 3 mps 695 mmHg 38%
    11:00 +29°C° 0 mm 3 mps 695 mmHg 35%
    12:00 +31°C° 0 mm 3 mps 695 mmHg 32%
    13:00 +32°C° 0 mm 4 mps 695 mmHg 31%
    14:00 +33°C° 0 mm 4 mps 694 mmHg 31%
    15:00 +33°C° 0 mm 4 mps 694 mmHg 30%
    16:00 +32°C° 0 mm 4 mps 694 mmHg 32%
    17:00 +30°C° 0 mm 3 mps 694 mmHg 35%
    18:00 +29°C° 0 mm 2 mps 694 mmHg 37%
    19:00 +27°C° 0 mm 2 mps 694 mmHg 40%
    20:00 +25°C° 0 mm 2 mps 694 mmHg 43%
    21:00 +23°C° 0 mm 2 mps 694 mmHg 46%
    22:00 +23°C° 0 mm 2 mps 694 mmHg 47%
    23:00 +21°C° 0 mm 2 mps 694 mmHg 48%

    Tomorrow, 21 August, Monday

    Time Temperature Precipitation Wind Pressure Humidity
    00:00 +21°C° 0 mm 1 mps 694 mmHg 49%
    01:00 +21°C° 0 mm 1 mps 694 mmHg 51%
    02:00 +20°C° 0 mm 1 mps 694 mmHg 52%
    03:00 +19°C° 0 mm 2 mps 694 mmHg 53%
    04:00 +19°C° 0 mm 2 mps 694 mmHg 54%
    05:00 +19°C° 0 mm 2 mps 694 mmHg 55%
    06:00 +19°C° 0 mm 2 mps 694 mmHg 55%
    07:00 +23°C° 0 mm 2 mps 694 mmHg 49%
    08:00 +25°C° 0 mm 2 mps 694 mmHg 43%
    09:00 +28°C° 0 mm 2 mps 694 mmHg 37%
    10:00 +29°C° 0 mm 2 mps 694 mmHg 34%
    11:00 +31°C° 0 mm 2 mps 693 mmHg 31%
    12:00 +33°C° 0 mm 3 mps 693 mmHg 29%
    13:00 +34°C° 0 mm 3 mps 693 mmHg 28%
    14:00 +34°C° 0 mm 3 mps 692 mmHg 28%
    15:00 +35°C° 0 mm 3 mps 692 mmHg 27%
    16:00 +33°C° 0 mm 3 mps 692 mmHg 30%
    17:00 +31°C° 0 mm 3 mps 692 mmHg 33%
    18:00 +30°C° 0 mm 2 mps 691 mmHg 36%
    19:00 +28°C° 0 mm 2 mps 692 mmHg 40%
    20:00 +26°C° 0 mm 2 mps 692 mmHg 44%
    21:00 +24°C° 0 mm 2 mps 692 mmHg 48%
    22:00 +23°C° 0 mm 1 mps 692 mmHg 49%
    23:00 +23°C° 0 mm 1 mps 692 mmHg 51%

    Day after tomorrow, 22 August, Tuesday

    Time Temperature Precipitation Wind Pressure Humidity
    00:00 +22°C° 0 mm 1 mps 692 mmHg 52%
    01:00 +21°C° 0 mm 1 mps 692 mmHg 53%
    02:00 +21°C° 0 mm 1 mps 692 mmHg 54%
    03:00 +20°C° 0 mm 2 mps 692 mmHg 54%
    04:00 +20°C° 0 mm 2 mps 692 mmHg 55%
    05:00 +20°C° 0 mm 2 mps 692 mmHg 55%
    06:00 +21°C° 0 mm 1 mps 692 mmHg 55%
    07:00 +23°C° 0 mm 2 mps 692 mmHg 48%
    08:00 +26°C° 0 mm 2 mps 692 mmHg 41%
    09:00 +29°C° 0 mm 2 mps 692 mmHg 34%
    10:00 +30°C° 0 mm 2 mps 692 mmHg 31%
    11:00 +32°C° 0 mm 2 mps 692 mmHg 29%
    12:00 +34°C° 0 mm 3 mps 692 mmHg 26%
    13:00 +34°C° 0 mm 3 mps 691 mmHg 26%
    14:00 +35°C° 0 mm 3 mps 691 mmHg 26%
    15:00 +35°C° 0 mm 4 mps 691 mmHg 25%
    16:00 +34°C° 0 mm 3 mps 691 mmHg 29%
    17:00 +33°C° 0 mm 3 mps 691 mmHg 32%
    18:00 +30°C° 0 mm 2 mps 690 mmHg 35%
    19:00 +28°C° 0 mm 2 mps 691 mmHg 39%
    20:00 +26°C° 0 mm 2 mps 691 mmHg 42%
    21:00 +24°C° 0 mm 2 mps 691 mmHg 46%
    22:00 +23°C° 0 mm 1 mps 691 mmHg 47%
    23:00 +23°C° 0 mm 1 mps 692 mmHg 48%

    23 August, Wednesday

    Time Temperature Precipitation Wind Pressure Humidity
    00:00 +22°C° 0 mm 1 mps 692 mmHg 49%
    01:00 +22°C° 0 mm 1 mps 692 mmHg 50%
    02:00 +21°C° 0 mm 1 mps 692 mmHg 51%
    03:00 +21°C° 0 mm 1 mps 692 mmHg 53%
    04:00 +21°C° 0 mm 1 mps 692 mmHg 53%
    05:00 +20°C° 0 mm 2 mps 692 mmHg 54%
    06:00 +20°C° 0 mm 2 mps 692 mmHg 54%
    07:00 +23°C° 0 mm 2 mps 693 mmHg 48%
    08:00 +26°C° 0 mm 2 mps 693 mmHg 42%
    09:00 +28°C° 0 mm 2 mps 693 mmHg 35%
    10:00 +30°C° 0 mm 2 mps 693 mmHg 33%
    11:00 +31°C° 0 mm 3 mps 693 mmHg 30%
    12:00 +34°C° 0 mm 4 mps 693 mmHg 27%
    13:00 +34°C° 0 mm 4 mps 693 mmHg 26%
    14:00 +34°C° 0 mm 4 mps 693 mmHg 26%
    15:00 +35°C° 0 mm 4 mps 692 mmHg 25%
    16:00 +33°C° 0 mm 4 mps 693 mmHg 28%
    17:00 +31°C° 0 mm 3 mps 693 mmHg 31%
    18:00 +30°C° 0 mm 3 mps 693 mmHg 34%
    19:00 +28°C° 0 mm 2 mps 693 mmHg 36%
    20:00 +26°C° 0 mm 2 mps 694 mmHg 39%
    21:00 +24°C° 0 mm 2 mps 694 mmHg 41%
    22:00 +23°C° 0 mm 2 mps 694 mmHg 43%
    23:00 +23°C° 0 mm 2 mps 695 mmHg 44%

    24 August, Thursday

    Time Temperature Precipitation Wind Pressure Humidity
    00:00 +21°C° 0 mm 2 mps 695 mmHg 45%
    01:00 +20°C° 0 mm 2 mps 695 mmHg 47%
    02:00 +20°C° 0 mm 2 mps 695 mmHg 50%
    03:00 +20°C° 0 mm 2 mps 695 mmHg 52%
    04:00 +20°C° 0 mm 2 mps 695 mmHg 53%
    05:00 +20°C° 0 mm 2 mps 695 mmHg 55%
    06:00 +20°C° 0 mm 2 mps 695 mmHg 56%
    07:00 +23°C° 0 mm 2 mps 695 mmHg 51%
    08:00 +26°C° 0 mm 2 mps 696 mmHg 46%
    09:00 +28°C° 0 mm 2 mps 696 mmHg 40%
    10:00 +29°C° 0 mm 3 mps 696 mmHg 37%
    11:00 +31°C° 0 mm 3 mps 696 mmHg 33%
    12:00 +33°C° 0 mm 4 mps 696 mmHg 29%
    13:00 +34°C° 0 mm 4 mps 695 mmHg 28%
    14:00 +34°C° 0 mm 4 mps 695 mmHg 27%
    15:00 +34°C° 0 mm 5 mps 695 mmHg 26%
    16:00 +33°C° 0 mm 4 mps 695 mmHg 27%
    17:00 +31°C° 0 mm 3 mps 695 mmHg 29%
    18:00 +30°C° 0 mm 3 mps 695 mmHg 31%
    19:00 +28°C° 0 mm 2 mps 695 mmHg 33%
    20:00 +26°C° 0 mm 2 mps 696 mmHg 35%
    21:00 +24°C° 0 mm 2 mps 696 mmHg 36%
    22:00 +23°C° 0 mm 2 mps 696 mmHg 38%
    23:00 +21°C° 0 mm 2 mps 696 mmHg 39%

    25 August, Friday

    Time Temperature Precipitation Wind Pressure Humidity
    00:00 +20°C° 0 mm 2 mps 696 mmHg 40%
    01:00 +20°C° 0 mm 2 mps 696 mmHg 41%
    02:00 +19°C° 0 mm 2 mps 696 mmHg 43%
    03:00 +19°C° 0 mm 2 mps 696 mmHg 45%
    04:00 +19°C° 0 mm 2 mps 696 mmHg 46%
    05:00 +19°C° 0 mm 2 mps 696 mmHg 47%
    06:00 +19°C° 0 mm 2 mps 696 mmHg 48%
    07:00 +21°C° 0 mm 2 mps 697 mmHg 43%
    08:00 +24°C° 0 mm 2 mps 697 mmHg 37%
    09:00 +27°C° 0 mm 2 mps 697 mmHg 32%
    10:00 +28°C° 0 mm 2 mps 697 mmHg 29%
    11:00 +30°C° 0 mm 3 mps 697 mmHg 26%
    12:00 +31°C° 0 mm 3 mps 696 mmHg 23%
    13:00 +33°C° 0 mm 4 mps 696 mmHg 22%
    14:00 +33°C° 0 mm 4 mps 696 mmHg 21%
    15:00 +34°C° 0 mm 4 mps 695 mmHg 20%
    16:00 +31°C° 0 mm 3 mps 695 mmHg 22%
    17:00 +30°C° 0 mm 3 mps 695 mmHg 24%
    18:00 +28°C° 0 mm 2 mps 695 mmHg 26%
    19:00 +27°C° 0 mm 2 mps 695 mmHg 27%
    20:00 +25°C° 0 mm 2 mps 696 mmHg 28%
    21:00 +23°C° 0 mm 2 mps 696 mmHg 30%
    22:00 +21°C° 0 mm 2 mps 696 mmHg 30%
    23:00 +20°C° 0 mm 2 mps 696 mmHg 31%
    Show more